EWG6PR LOWW-EDDS

Flight info

Callsign EWG6PR
Flight time 1h 5m
Altitude 34000
Route LUGEM DCT KIRDI DCT EBEDA L173 DODIL T127 TEKSI TEKSI1W
Aircraft A319/M-SDE3FGHIRWY/LB1

Departure

Time 2026-04-20 19:01
Airport Vienna International Airport (LOWW)

Arrival

Time 2026-04-20 20:07
Airport Stuttgart Airport (EDDS)
Time Latitude Longitude Altitude Speed Heading
2026-04-20 18:22 48.11938 16.55798 621 ft 0 kts 296°
2026-04-20 18:52 48.11934 16.55812 617 ft 4 kts 295°
2026-04-20 18:52 48.11923 16.55849 618 ft 4 kts 289°
2026-04-20 18:52 48.11917 16.55887 626 ft 4 kts 271°
2026-04-20 18:53 48.11922 16.55920 620 ft 3 kts 213°
2026-04-20 18:53 48.11925 16.55923 618 ft 0 kts 206°
2026-04-20 18:56 48.11919 16.55919 610 ft 2 kts 206°
2026-04-20 18:56 48.11896 16.55902 610 ft 6 kts 206°
2026-04-20 18:56 48.11845 16.55865 610 ft 10 kts 206°
2026-04-20 18:56 48.11771 16.55811 620 ft 9 kts 206°
2026-04-20 18:57 48.11716 16.55776 610 ft 9 kts 187°
2026-04-20 18:57 48.11671 16.55855 623 ft 11 kts 116°
2026-04-20 18:57 48.11631 16.55979 610 ft 16 kts 116°
2026-04-20 18:57 48.11580 16.56136 612 ft 16 kts 116°
2026-04-20 18:58 48.11529 16.56292 611 ft 18 kts 116°
2026-04-20 18:58 48.11473 16.56462 611 ft 18 kts 116°
2026-04-20 18:58 48.11419 16.56626 617 ft 16 kts 116°
2026-04-20 18:58 48.11375 16.56765 613 ft 17 kts 116°
2026-04-20 18:59 48.11317 16.56944 613 ft 19 kts 116°
2026-04-20 18:59 48.11265 16.57100 618 ft 17 kts 116°
2026-04-20 18:59 48.11230 16.57208 614 ft 7 kts 118°
2026-04-20 18:59 48.11188 16.57239 611 ft 7 kts 192°
2026-04-20 19:00 48.11142 16.57206 614 ft 8 kts 206°
2026-04-20 19:00 48.11091 16.57168 610 ft 9 kts 207°
2026-04-20 19:00 48.11055 16.57123 616 ft 7 kts 258°
2026-04-20 19:00 48.11077 16.57036 614 ft 12 kts 295°
2026-04-20 19:01 48.11148 16.56818 614 ft 48 kts 296°
2026-04-20 19:01 48.11393 16.56060 615 ft 112 kts 296°
2026-04-20 19:01 48.11819 16.54760 629 ft 163 kts 296°
2026-04-20 19:01 48.12288 16.53270 1355 ft 154 kts 288°
2026-04-20 19:02 48.12294 16.51673 2025 ft 158 kts 266°
2026-04-20 19:02 48.12081 16.49970 2416 ft 174 kts 263°
2026-04-20 19:02 48.11824 16.48117 2851 ft 189 kts 263°
2026-04-20 19:02 48.11530 16.46083 3193 ft 213 kts 258°
2026-04-20 19:03 48.11076 16.43847 3701 ft 235 kts 256°
2026-04-20 19:03 48.10579 16.41425 4350 ft 252 kts 256°
2026-04-20 19:03 48.10083 16.38848 5195 ft 261 kts 257°
2026-04-20 19:03 48.09762 16.36180 6201 ft 261 kts 271°
2026-04-20 19:04 48.09847 16.33465 7186 ft 262 kts 275°
2026-04-20 19:04 48.09923 16.30740 8177 ft 263 kts 274°
2026-04-20 19:04 48.09974 16.28037 9166 ft 263 kts 273°
2026-04-20 19:04 48.10017 16.25299 10117 ft 264 kts 273°
2026-04-20 19:05 48.10062 16.22463 10550 ft 284 kts 273°
2026-04-20 19:05 48.10200 16.19421 10958 ft 299 kts 279°
2026-04-20 19:05 48.10489 16.16313 11667 ft 304 kts 279°
2026-04-20 19:05 48.10776 16.13157 12432 ft 308 kts 278°
2026-04-20 19:06 48.11063 16.09970 13186 ft 311 kts 278°
2026-04-20 19:06 48.11351 16.06753 13922 ft 314 kts 278°
2026-04-20 19:06 48.11642 16.03503 14582 ft 316 kts 278°
2026-04-20 19:06 48.11932 16.00226 15247 ft 319 kts 278°
2026-04-20 19:07 48.12222 15.96924 15916 ft 321 kts 278°
2026-04-20 19:07 48.12517 15.93597 16624 ft 323 kts 278°
2026-04-20 19:07 48.12814 15.90250 17335 ft 326 kts 278°
2026-04-20 19:07 48.13112 15.86875 18030 ft 328 kts 278°
2026-04-20 19:08 48.13413 15.83473 18670 ft 331 kts 278°
2026-04-20 19:08 48.14019 15.76613 19947 ft 334 kts 278°
2026-04-20 19:08 48.14323 15.73157 20604 ft 335 kts 278°
2026-04-20 19:09 48.14627 15.69689 21249 ft 337 kts 278°
2026-04-20 19:09 48.14928 15.66210 21864 ft 338 kts 278°
2026-04-20 19:09 48.15229 15.62713 22500 ft 340 kts 278°
2026-04-20 19:09 48.15524 15.59240 23108 ft 341 kts 277°
2026-04-20 19:10 48.15823 15.55709 23685 ft 343 kts 277°
2026-04-20 19:10 48.16124 15.52156 24186 ft 344 kts 278°
2026-04-20 19:10 48.16428 15.48595 24676 ft 345 kts 278°
2026-04-20 19:10 48.16733 15.45022 25153 ft 346 kts 278°
2026-04-20 19:11 48.17041 15.41438 25622 ft 347 kts 278°
2026-04-20 19:11 48.17269 15.37828 26081 ft 350 kts 274°
2026-04-20 19:11 48.17355 15.34184 26530 ft 351 kts 274°
2026-04-20 19:11 48.17444 15.30526 26951 ft 352 kts 274°
2026-04-20 19:12 48.17531 15.26848 27394 ft 354 kts 274°
2026-04-20 19:12 48.17615 15.23157 27830 ft 355 kts 274°
2026-04-20 19:12 48.17702 15.19455 28267 ft 357 kts 275°
2026-04-20 19:12 48.17789 15.15728 28703 ft 358 kts 274°
2026-04-20 19:13 48.17719 15.11977 29117 ft 362 kts 270°
2026-04-20 19:13 48.17523 15.08214 29511 ft 364 kts 269°
2026-04-20 19:13 48.17302 15.04430 29930 ft 365 kts 269°
2026-04-20 19:13 48.17074 15.00688 30279 ft 366 kts 269°
2026-04-20 19:14 48.16838 14.96877 30565 ft 369 kts 269°
2026-04-20 19:14 48.16682 14.94286 30748 ft 371 kts 269°
2026-04-20 19:14 48.16490 14.90431 30998 ft 372 kts 273°
2026-04-20 19:14 48.16558 14.86554 31240 ft 373 kts 275°
2026-04-20 19:15 48.16701 14.81388 31575 ft 376 kts 275°
2026-04-20 19:15 48.16784 14.78742 31744 ft 378 kts 275°
2026-04-20 19:15 48.16950 14.73515 32081 ft 380 kts 275°
2026-04-20 19:15 48.17071 14.69559 32338 ft 381 kts 275°
2026-04-20 19:16 48.17150 14.66872 32513 ft 381 kts 275°
2026-04-20 19:16 48.17263 14.62894 32774 ft 384 kts 275°
2026-04-20 19:16 48.17372 14.58890 33039 ft 386 kts 275°
2026-04-20 19:16 48.17480 14.54869 33308 ft 387 kts 275°
2026-04-20 19:17 48.17587 14.50841 33578 ft 388 kts 275°
2026-04-20 19:17 48.17689 14.46861 33849 ft 389 kts 275°
2026-04-20 19:17 48.17792 14.42803 34023 ft 390 kts 275°
2026-04-20 19:18 48.17988 14.34845 34042 ft 376 kts 275°
2026-04-20 19:18 48.18175 14.27073 34058 ft 371 kts 275°
2026-04-20 19:19 48.18358 14.19372 34055 ft 370 kts 275°
2026-04-20 19:19 48.18542 14.11656 34059 ft 370 kts 275°
2026-04-20 19:20 48.18719 14.03941 34065 ft 370 kts 275°
2026-04-20 19:20 48.18891 13.96238 34058 ft 370 kts 275°
2026-04-20 19:21 48.19054 13.88541 34055 ft 370 kts 275°
2026-04-20 19:21 48.19211 13.80838 34052 ft 369 kts 275°
2026-04-20 19:22 48.19362 13.73144 34048 ft 369 kts 274°
2026-04-20 19:22 48.19504 13.65449 34050 ft 369 kts 274°
2026-04-20 19:23 48.19646 13.57763 34055 ft 369 kts 274°
2026-04-20 19:23 48.19781 13.50121 34047 ft 369 kts 274°
2026-04-20 19:23 48.19848 13.46284 33668 ft 368 kts 274°
2026-04-20 19:24 48.19914 13.42451 33288 ft 367 kts 274°
2026-04-20 19:24 48.19975 13.38643 33002 ft 364 kts 274°
2026-04-20 19:24 48.20037 13.34869 32705 ft 361 kts 274°
2026-04-20 19:24 48.20102 13.31130 32455 ft 357 kts 274°
2026-04-20 19:25 48.20162 13.27428 32183 ft 354 kts 274°
2026-04-20 19:25 48.20219 13.23760 31902 ft 351 kts 274°
2026-04-20 19:25 48.20275 13.20126 31627 ft 347 kts 274°
2026-04-20 19:25 48.20329 13.16522 31352 ft 344 kts 274°
2026-04-20 19:26 48.20379 13.12950 31069 ft 341 kts 274°
2026-04-20 19:26 48.20424 13.09410 30788 ft 338 kts 274°
2026-04-20 19:26 48.20469 13.05906 30501 ft 335 kts 274°
2026-04-20 19:26 48.20517 13.02429 30212 ft 332 kts 275°
2026-04-20 19:27 48.20566 12.98983 30048 ft 330 kts 275°
2026-04-20 19:27 48.20658 12.92116 30071 ft 330 kts 274°
2026-04-20 19:28 48.20739 12.85237 30070 ft 330 kts 274°
2026-04-20 19:28 48.20743 12.81808 29886 ft 329 kts 271°
2026-04-20 19:28 48.20529 12.78388 29474 ft 329 kts 269°
2026-04-20 19:28 48.20302 12.74973 29073 ft 328 kts 269°
2026-04-20 19:29 48.20079 12.71579 28692 ft 327 kts 269°
2026-04-20 19:29 48.19856 12.68193 28317 ft 326 kts 269°
2026-04-20 19:29 48.19633 12.64822 28067 ft 325 kts 269°
2026-04-20 19:30 48.19299 12.58064 28064 ft 323 kts 278°
2026-04-20 19:30 48.20461 12.51664 28078 ft 321 kts 288°
2026-04-20 19:31 48.21800 12.45294 27830 ft 318 kts 288°
2026-04-20 19:31 48.22468 12.42136 27467 ft 318 kts 288°
2026-04-20 19:31 48.23132 12.38980 27122 ft 317 kts 288°
2026-04-20 19:31 48.23791 12.35830 26790 ft 316 kts 288°
2026-04-20 19:32 48.24446 12.32689 26469 ft 315 kts 288°
2026-04-20 19:32 48.25100 12.29556 26144 ft 314 kts 288°
2026-04-20 19:32 48.25752 12.26430 25819 ft 313 kts 288°
2026-04-20 19:32 48.26400 12.23315 25493 ft 313 kts 288°
2026-04-20 19:33 48.27047 12.20199 25158 ft 312 kts 288°
2026-04-20 19:33 48.27692 12.17090 24837 ft 312 kts 288°
2026-04-20 19:33 48.28335 12.13991 24510 ft 311 kts 288°
2026-04-20 19:33 48.28978 12.10892 24175 ft 311 kts 288°
2026-04-20 19:34 48.29618 12.07798 23841 ft 310 kts 288°
2026-04-20 19:34 48.30252 12.04710 23519 ft 308 kts 288°
2026-04-20 19:34 48.30882 12.01639 23132 ft 307 kts 288°
2026-04-20 19:34 48.31513 11.98574 22723 ft 306 kts 288°
2026-04-20 19:35 48.32141 11.95518 22317 ft 306 kts 288°
2026-04-20 19:35 48.32767 11.92469 21917 ft 305 kts 288°
2026-04-20 19:35 48.33392 11.89417 21515 ft 305 kts 288°
2026-04-20 19:35 48.34004 11.86411 21124 ft 305 kts 288°
2026-04-20 19:36 48.34631 11.83327 20725 ft 304 kts 288°
2026-04-20 19:36 48.35251 11.80292 20342 ft 304 kts 288°
2026-04-20 19:36 48.35874 11.77250 20104 ft 305 kts 288°
2026-04-20 19:36 48.36488 11.74243 20107 ft 306 kts 288°
2026-04-20 19:37 48.37111 11.71178 20110 ft 307 kts 288°
2026-04-20 19:37 48.37732 11.68108 20101 ft 307 kts 288°
2026-04-20 19:37 48.38350 11.65039 20106 ft 307 kts 287°
2026-04-20 19:37 48.38967 11.61970 20105 ft 306 kts 287°
2026-04-20 19:38 48.39582 11.58904 20112 ft 306 kts 287°
2026-04-20 19:38 48.40199 11.55836 20109 ft 306 kts 287°
2026-04-20 19:38 48.40817 11.52771 20105 ft 306 kts 287°
2026-04-20 19:38 48.41437 11.49701 20100 ft 306 kts 288°
2026-04-20 19:39 48.42056 11.46636 20110 ft 306 kts 288°
2026-04-20 19:39 48.42673 11.43566 20107 ft 306 kts 287°
2026-04-20 19:39 48.43288 11.40499 20095 ft 306 kts 287°
2026-04-20 19:39 48.43903 11.37430 20093 ft 306 kts 287°
2026-04-20 19:40 48.44518 11.34362 20106 ft 306 kts 287°
2026-04-20 19:40 48.45131 11.31288 20093 ft 306 kts 287°
2026-04-20 19:40 48.45739 11.28218 20100 ft 306 kts 287°
2026-04-20 19:40 48.46349 11.25142 20099 ft 307 kts 287°
2026-04-20 19:41 48.46958 11.22061 20103 ft 307 kts 287°
2026-04-20 19:41 48.47566 11.18978 20101 ft 307 kts 287°
2026-04-20 19:41 48.48175 11.15893 20111 ft 307 kts 287°
2026-04-20 19:41 48.48785 11.12810 20108 ft 307 kts 287°
2026-04-20 19:42 48.49385 11.09767 20113 ft 307 kts 287°
2026-04-20 19:42 48.49991 11.06679 20112 ft 307 kts 287°
2026-04-20 19:42 48.50597 11.03593 20106 ft 307 kts 287°
2026-04-20 19:42 48.51202 11.00503 20114 ft 307 kts 287°
2026-04-20 19:43 48.51806 10.97415 20101 ft 307 kts 287°
2026-04-20 19:43 48.52409 10.94323 20117 ft 307 kts 287°
2026-04-20 19:43 48.53012 10.91230 20113 ft 307 kts 287°
2026-04-20 19:43 48.53612 10.88141 20108 ft 307 kts 287°
2026-04-20 19:44 48.54210 10.85050 20110 ft 306 kts 287°
2026-04-20 19:44 48.54806 10.81966 20109 ft 306 kts 287°
2026-04-20 19:44 48.55402 10.78883 20005 ft 307 kts 287°
2026-04-20 19:44 48.56003 10.75770 19494 ft 310 kts 287°
2026-04-20 19:45 48.56609 10.72633 18998 ft 313 kts 287°
2026-04-20 19:45 48.57221 10.69460 18518 ft 316 kts 287°
2026-04-20 19:45 48.57835 10.66258 17980 ft 318 kts 287°
2026-04-20 19:45 48.58452 10.63036 17432 ft 320 kts 287°
2026-04-20 19:46 48.59074 10.59796 16896 ft 322 kts 287°
2026-04-20 19:46 48.59696 10.56540 16371 ft 323 kts 287°
2026-04-20 19:46 48.60196 10.53229 15857 ft 325 kts 275°
2026-04-20 19:46 48.60179 10.49814 15338 ft 326 kts 269°
2026-04-20 19:47 48.60088 10.46386 14831 ft 326 kts 269°
2026-04-20 19:47 48.59993 10.42967 14332 ft 326 kts 269°
2026-04-20 19:47 48.59906 10.39545 13835 ft 325 kts 269°
2026-04-20 19:47 48.59824 10.36135 13287 ft 325 kts 269°
2026-04-20 19:48 48.59749 10.32774 12756 ft 324 kts 269°
2026-04-20 19:48 48.59679 10.29336 12220 ft 323 kts 269°
2026-04-20 19:48 48.59616 10.25997 11704 ft 322 kts 269°
2026-04-20 19:48 48.59560 10.22633 11298 ft 318 kts 269°
2026-04-20 19:49 48.59509 10.19354 11128 ft 307 kts 269°
2026-04-20 19:49 48.59462 10.16200 11111 ft 292 kts 269°
2026-04-20 19:49 48.59416 10.13190 11117 ft 282 kts 269°
2026-04-20 19:49 48.59371 10.10241 11119 ft 280 kts 269°
2026-04-20 19:50 48.59326 10.07301 11108 ft 280 kts 269°
2026-04-20 19:50 48.59282 10.04363 11108 ft 280 kts 269°
2026-04-20 19:50 48.59236 10.01429 11109 ft 280 kts 269°
2026-04-20 19:50 48.59192 9.98482 11108 ft 281 kts 269°
2026-04-20 19:51 48.59149 9.95519 11109 ft 282 kts 269°
2026-04-20 19:51 48.59107 9.92554 11107 ft 283 kts 269°
2026-04-20 19:51 48.59063 9.89581 10869 ft 282 kts 269°
2026-04-20 19:51 48.59023 9.86635 10619 ft 279 kts 269°
2026-04-20 19:52 48.58984 9.83725 10381 ft 276 kts 269°
2026-04-20 19:52 48.58946 9.80841 10164 ft 272 kts 269°
2026-04-20 19:52 48.58912 9.78023 10095 ft 264 kts 269°
2026-04-20 19:52 48.58879 9.75288 10097 ft 259 kts 269°
2026-04-20 19:53 48.58845 9.72583 10096 ft 258 kts 269°
2026-04-20 19:53 48.58814 9.69877 10100 ft 257 kts 269°
2026-04-20 19:53 48.58782 9.67177 10103 ft 257 kts 269°
2026-04-20 19:53 48.58750 9.64476 10096 ft 257 kts 269°
2026-04-20 19:54 48.58720 9.61777 10094 ft 257 kts 269°
2026-04-20 19:54 48.58687 9.59079 10095 ft 257 kts 269°
2026-04-20 19:54 48.58655 9.56375 10094 ft 257 kts 269°
2026-04-20 19:54 48.58605 9.53717 10093 ft 248 kts 269°
2026-04-20 19:55 48.58545 9.51159 10093 ft 240 kts 269°
2026-04-20 19:55 48.58486 9.48696 10094 ft 237 kts 269°
2026-04-20 19:55 48.58425 9.46216 10094 ft 236 kts 269°
2026-04-20 19:55 48.58364 9.43738 10093 ft 236 kts 269°
2026-04-20 19:56 48.58323 9.42063 10096 ft 236 kts 269°
2026-04-20 19:56 48.58240 9.38783 10091 ft 236 kts 269°
2026-04-20 19:56 48.58043 9.36327 10111 ft 237 kts 257°
2026-04-20 19:56 48.57567 9.33932 10026 ft 238 kts 254°
2026-04-20 19:57 48.57049 9.31519 9661 ft 245 kts 254°
2026-04-20 19:57 48.56520 9.29053 9280 ft 248 kts 254°
2026-04-20 19:57 48.55986 9.26572 8906 ft 250 kts 254°
2026-04-20 19:57 48.55446 9.24066 8535 ft 252 kts 254°
2026-04-20 19:58 48.54903 9.21542 8167 ft 254 kts 254°
2026-04-20 19:58 48.54354 9.18996 7808 ft 256 kts 254°
2026-04-20 19:58 48.53800 9.16425 7444 ft 259 kts 254°
2026-04-20 19:58 48.53243 9.13833 7095 ft 261 kts 254°
2026-04-20 19:59 48.52685 9.11236 6837 ft 259 kts 254°
2026-04-20 19:59 48.52137 9.08658 6584 ft 257 kts 253°
2026-04-20 19:59 48.51602 9.06096 6323 ft 255 kts 254°
2026-04-20 19:59 48.51071 9.03559 6125 ft 250 kts 254°
2026-04-20 20:00 48.50555 9.01105 6067 ft 242 kts 254°
2026-04-20 20:00 48.50048 8.98702 5985 ft 240 kts 255°
2026-04-20 20:00 48.49844 8.96242 5906 ft 237 kts 278°
2026-04-20 20:00 48.50366 8.93930 5828 ft 233 kts 304°
2026-04-20 20:01 48.51504 8.92235 5750 ft 231 kts 331°
2026-04-20 20:01 48.53004 8.91476 5680 ft 229 kts 356°
2026-04-20 20:01 48.54570 8.91787 5536 ft 228 kts 22°
2026-04-20 20:01 48.55979 8.92886 5417 ft 228 kts 29°
2026-04-20 20:02 48.57373 8.94035 5260 ft 228 kts 28°
2026-04-20 20:02 48.58766 8.95180 5042 ft 228 kts 28°
2026-04-20 20:02 48.60168 8.96324 4795 ft 228 kts 28°
2026-04-20 20:02 48.61556 8.97455 4552 ft 226 kts 28°
2026-04-20 20:03 48.62928 8.98576 4311 ft 223 kts 29°
2026-04-20 20:03 48.64199 8.99869 4080 ft 219 kts 44°
2026-04-20 20:03 48.65052 9.01739 3839 ft 216 kts 66°
2026-04-20 20:03 48.65491 9.03885 3566 ft 212 kts 72°
2026-04-20 20:04 48.65894 9.05995 3284 ft 203 kts 72°
2026-04-20 20:04 48.66276 9.07988 3045 ft 190 kts 71°
2026-04-20 20:04 48.66633 9.09853 2765 ft 179 kts 71°
2026-04-20 20:04 48.66854 9.11010 2599 ft 164 kts 71°
2026-04-20 20:05 48.67241 9.13030 2285 ft 139 kts 71°
2026-04-20 20:05 48.67494 9.14368 2055 ft 126 kts 72°
2026-04-20 20:05 48.67729 9.15621 1909 ft 125 kts 72°
2026-04-20 20:05 48.67984 9.16935 1810 ft 134 kts 72°
2026-04-20 20:06 48.68161 9.17862 1700 ft 136 kts 72°
2026-04-20 20:06 48.68427 9.19244 1477 ft 137 kts 72°
2026-04-20 20:06 48.68684 9.20604 1294 ft 134 kts 72°
2026-04-20 20:06 48.68913 9.21805 1249 ft 97 kts 74°
2026-04-20 20:07 48.69053 9.22537 1226 ft 46 kts 74°
2026-04-20 20:07 48.69123 9.22844 1220 ft 20 kts 62°
2026-04-20 20:07 48.69203 9.23007 1217 ft 13 kts 46°
2026-04-20 20:07 48.69264 9.23100 1216 ft 10 kts 45°
2026-04-20 20:08 48.69301 9.23146 1218 ft 0 kts 27°
2026-04-20 20:08 48.69302 9.23147 1218 ft 1 kts 27°
2026-04-20 20:09 48.69315 9.23156 1218 ft 3 kts 23°
2026-04-20 20:09 48.69347 9.23160 1219 ft 6 kts 351°
2026-04-20 20:09 48.69391 9.23122 1222 ft 8 kts 314°
2026-04-20 20:09 48.69406 9.23031 1225 ft 10 kts 263°
2026-04-20 20:10 48.69384 9.22909 1227 ft 14 kts 254°
2026-04-20 20:10 48.69355 9.22753 1231 ft 17 kts 254°
2026-04-20 20:10 48.69323 9.22583 1244 ft 16 kts 254°
2026-04-20 20:10 48.69289 9.22407 1249 ft 17 kts 253°
2026-04-20 20:11 48.69268 9.22297 1241 ft 11 kts 254°
2026-04-20 20:11 48.69244 9.22170 1250 ft 14 kts 254°
2026-04-20 20:11 48.69214 9.22013 1253 ft 16 kts 254°
2026-04-20 20:11 48.69186 9.21868 1256 ft 15 kts 254°
2026-04-20 20:12 48.69157 9.21714 1256 ft 15 kts 254°
2026-04-20 20:12 48.69131 9.21578 1260 ft 14 kts 253°
2026-04-20 20:12 48.69105 9.21439 1267 ft 15 kts 254°
2026-04-20 20:13 48.69054 9.21172 1268 ft 13 kts 254°
2026-04-20 20:13 48.69031 9.21049 1278 ft 10 kts 254°
2026-04-20 20:13 48.69011 9.20944 1272 ft 11 kts 254°
2026-04-20 20:13 48.68991 9.20837 1275 ft 9 kts 254°
2026-04-20 20:14 48.68975 9.20754 1279 ft 7 kts 254°
2026-04-20 20:14 48.68961 9.20679 1280 ft 7 kts 253°
2026-04-20 20:14 48.68945 9.20593 1282 ft 10 kts 254°
2026-04-20 20:14 48.68924 9.20482 1284 ft 12 kts 254°
2026-04-20 20:15 48.68899 9.20350 1287 ft 13 kts 254°
2026-04-20 20:15 48.68877 9.20236 1290 ft 10 kts 255°
2026-04-20 20:15 48.68859 9.20139 1292 ft 9 kts 254°
2026-04-20 20:15 48.68841 9.20046 1294 ft 9 kts 254°
2026-04-20 20:16 48.68818 9.19974 1295 ft 7 kts 245°
2026-04-20 20:16 48.68821 9.19916 1297 ft 5 kts 301°
2026-04-20 20:16 48.68847 9.19893 1299 ft 4 kts 343°
2026-04-20 20:16 48.68878 9.19880 1302 ft 5 kts 341°
2026-04-20 20:17 48.68893 9.19843 1304 ft 5 kts 279°
2026-04-20 20:17 48.68878 9.19758 1306 ft 11 kts 253°
2026-04-20 20:17 48.68860 9.19660 1309 ft 9 kts 253°
2026-04-20 20:17 48.68842 9.19567 1310 ft 9 kts 253°
2026-04-20 20:18 48.68826 9.19484 1312 ft 7 kts 254°
2026-04-20 20:18 48.68815 9.19425 1313 ft 5 kts 254°
2026-04-20 20:18 48.68808 9.19385 1313 ft 4 kts 254°
2026-04-20 20:18 48.68801 9.19347 1314 ft 4 kts 258°
2026-04-20 20:19 48.68816 9.19310 1315 ft 4 kts 329°
2026-04-20 20:19 48.68840 9.19302 1315 ft 3 kts 344°
2026-04-20 20:19 48.68859 9.19293 1316 ft 2 kts 343°
2026-04-20 20:19 48.68869 9.19288 1316 ft 1 kts 343°
2026-04-20 20:20 48.68871 9.19288 1316 ft 0 kts 343°